Sparta, WI

12:20 AM CST on February 19, 2018 (GMT -0600)
Sparta-Fort McCoy

Weather History for KCMY - April, 2014

Change the Weather History Date:

Monday, April 28, 2014

  Actual Average Record
Temperature  
Mean Temperature 42 °F -  
Max Temperature 44 °F 63 °F 88 °F (1952)
Min Temperature 40 °F 37 °F 21 °F (2005)
Degree Days  
Heating Degree Days 23    
Moisture  
Dew Point 38 °F    
Average Humidity 83    
Maximum Humidity 93    
Minimum Humidity 73    
Precipitation  
Precipitation 0.69 in - - ()
Sea Level Pressure  
Sea Level Pressure 29.70 in    
Wind  
Wind Speed 18 mph (East)    
Max Wind Speed 30 mph    
Max Gust Speed 39 mph    
Visibility 8 miles    
Events Rain    
Averages and records for this station are not official NWS values.
T = Trace of Precipitation, MM = Missing Value Source: NWS Daily Summary

Daily Weather History Graph

Daily Weather History Graph

Search for Another Location

Airport or City:

Trip Planner

Search our weather history database for the weather conditions in past years. The results will help you decide how hot, cold, wet, or windy it might be!

Date:

Astronomy

Apr. 28, 2014 Rise Set
Actual Time 5:59 AM CDT 8:02 PM CDT
Civil Twilight 5:27 AM CDT 8:34 PM CDT
Nautical Twilight 4:49 AM CDT 9:12 PM CDT
Astronomical Twilight 4:07 AM CDT 9:55 PM CDT
Moon 5:39 AM CDT (4/28) 7:39 PM CDT (4/28)
Length of Visible Light 15h 06m
Length of Day
14h 03m
Waning Crescent, 0% of the Moon is Illuminated
Apr 28
Waning Crescent
Apr 29
New
May 6
First Quarter
May 14
Full
May 21
Last Quarter

Hourly Weather History & Observations

Time (CDT) Temp. Windchill Dew Point Humidity Pressure Visibility Wind Dir Wind Speed Gust Speed Precip Events Conditions
12:15 AM 43.0 °F 36.4 °F 36.5 °F 78% 29.82 in 10.0 mi East 12.7 mph 19.6 mph N/A   Mostly Cloudy
12:35 AM 43.2 °F 36.2 °F 36.5 °F 77% 29.82 in 10.0 mi East 13.8 mph 19.6 mph N/A   Overcast
12:55 AM 43.2 °F 35.9 °F 36.1 °F 76% 29.80 in 10.0 mi East 15.0 mph 21.9 mph N/A   Overcast
1:15 AM 43.5 °F 35.8 °F 36.3 °F 76% 29.81 in 10.0 mi East 17.3 mph 23.0 mph N/A   Overcast
1:35 AM 43.7 °F 37.7 °F 36.5 °F 76% 29.80 in 10.0 mi East 11.5 mph - N/A   Overcast
1:55 AM 43.7 °F 36.3 °F 36.5 °F 76% 29.79 in 10.0 mi East 16.1 mph 23.0 mph N/A   Overcast
2:15 AM 43.7 °F 35.4 °F 36.5 °F 76% 29.78 in 10.0 mi East 19.6 mph 25.3 mph N/A   Overcast
2:35 AM 44.2 °F 37.0 °F 36.1 °F 73% 29.77 in 10.0 mi East 16.1 mph 25.3 mph N/A   Overcast
2:55 AM 44.2 °F 35.7 °F 36.3 °F 74% 29.76 in 10.0 mi East 21.9 mph 28.8 mph N/A   Overcast
3:15 AM 42.8 °F 35.4 °F 37.6 °F 82% 29.75 in 10.0 mi East 15.0 mph 25.3 mph N/A Rain Light Rain
3:35 AM 42.4 °F 33.8 °F 37.0 °F 81% 29.75 in 10.0 mi East 19.6 mph 25.3 mph N/A   Overcast
3:55 AM 42.4 °F 33.3 °F 36.7 °F 80% 29.74 in 10.0 mi East 21.9 mph 31.1 mph N/A   Overcast
4:15 AM 42.1 °F 33.6 °F 36.7 °F 81% 29.74 in 7.0 mi East 18.4 mph 26.5 mph N/A   Overcast
4:35 AM 41.5 °F 33.2 °F 37.2 °F 85% 29.74 in 10.0 mi East 17.3 mph 28.8 mph N/A   Light Drizzle
4:55 AM 41.5 °F 32.9 °F 36.9 °F 83% 29.73 in 10.0 mi East 18.4 mph 24.2 mph N/A   Overcast
5:15 AM 41.9 °F 34.6 °F 36.7 °F 82% 29.73 in 10.0 mi East 13.8 mph 23.0 mph N/A   Overcast
5:30 AM 41.7 °F 33.7 °F 36.7 °F 82% 29.73 in 10.0 mi East 16.1 mph 25.3 mph N/A   Light Drizzle
5:55 AM 41.0 °F 31.9 °F 37.8 °F 88% 29.72 in 4.0 mi East 19.6 mph 31.1 mph 0.02 in Rain Light Rain
6:15 AM 41.0 °F 30.9 °F 37.4 °F 87% 29.72 in 10.0 mi East 24.2 mph 31.1 mph N/A Rain Light Rain
6:35 AM 41.0 °F 32.2 °F 37.4 °F 87% 29.72 in 10.0 mi East 18.4 mph 27.6 mph 0.01 in Rain Light Rain
6:55 AM 41.0 °F 31.4 °F 37.6 °F 88% 29.72 in 10.0 mi East 21.9 mph 29.9 mph 0.02 in Rain Light Rain
7:15 AM 41.2 °F 32.1 °F 37.4 °F 86% 29.72 in 10.0 mi East 19.6 mph 28.8 mph N/A Rain Light Rain
7:35 AM 41.7 °F 33.1 °F 37.0 °F 83% 29.71 in 10.0 mi East 18.4 mph 27.6 mph N/A   Overcast
7:55 AM 42.1 °F 32.1 °F 36.5 °F 81% 29.71 in 10.0 mi East 25.3 mph 31.1 mph 0.01 in   Overcast
8:15 AM 42.3 °F 32.8 °F 36.0 °F 78% 29.69 in 10.0 mi East 23.0 mph 33.4 mph N/A   Drizzle
8:55 AM 41.5 °F 31.6 °F 36.7 °F 83% 29.69 in 3.0 mi East 24.2 mph 39.1 mph 0.06 in Rain Light Rain
9:15 AM 41.0 °F 29.8 °F 37.0 °F 86% 29.68 in 4.0 mi East 29.9 mph 36.8 mph 0.01 in Rain Light Rain
9:35 AM 40.8 °F 31.7 °F 37.0 °F 86% 29.66 in 5.0 mi East 19.6 mph 28.8 mph 0.02 in Rain Light Rain
9:55 AM 41.0 °F 31.4 °F 37.4 °F 87% 29.66 in 5.0 mi East 21.9 mph 32.2 mph 0.05 in Rain Light Rain
10:15 AM 41.2 °F 32.1 °F 37.8 °F 88% 29.67 in 4.0 mi East 19.6 mph 31.1 mph 0.04 in Rain Light Rain
10:35 AM 41.2 °F 32.1 °F 38.3 °F 89% 29.67 in 2.5 mi East 19.6 mph 28.8 mph 0.11 in Rain Rain
10:55 AM 41.5 °F 32.1 °F 38.8 °F 90% 29.67 in 2.0 mi East 21.9 mph 29.9 mph 0.19 in Rain Rain
11:15 AM 41.9 °F 32.6 °F 39.0 °F 90% 29.67 in 3.0 mi East 21.9 mph 28.8 mph 0.06 in Rain Rain
11:30 AM 42.1 °F 33.3 °F 38.8 °F 88% 29.68 in 5.0 mi East 19.6 mph 31.1 mph 0.10 in Rain Light Rain
12:15 PM 42.8 °F 33.5 °F 39.4 °F 88% 29.68 in 4.0 mi East 23.0 mph 34.5 mph 0.02 in Rain Light Rain
12:35 PM 43.0 °F 35.4 °F 39.9 °F 89% 29.68 in 3.0 mi East 16.1 mph 36.8 mph 0.03 in Rain Light Rain
12:55 PM 43.2 °F 34.5 °F 40.5 °F 90% 29.68 in 4.0 mi East 20.7 mph 32.2 mph 0.06 in Rain Light Rain
1:10 PM 43.7 °F 35.0 °F 41.0 °F 90% 29.67 in 4.0 mi East 21.9 mph 29.9 mph 0.01 in Rain Light Rain
1:35 PM 44.1 °F 35.2 °F 41.4 °F 90% 29.67 in 4.0 mi East 23.0 mph 33.4 mph 0.04 in Rain Light Rain
1:55 PM 44.1 °F 34.6 °F 41.9 °F 92% 29.66 in 2.5 mi East 26.5 mph 32.2 mph 0.08 in Rain Rain
2:15 PM 43.7 °F 34.3 °F 41.9 °F 93% 29.66 in 3.0 mi East 25.3 mph 35.7 mph 0.03 in Rain Rain
2:40 PM 43.3 °F 34.0 °F 41.4 °F 93% 29.66 in 3.0 mi East 24.2 mph 33.4 mph 0.09 in Rain Light Rain
3:15 PM 43.7 °F 35.4 °F 40.3 °F 88% 29.67 in 10.0 mi East 19.6 mph 39.1 mph N/A   Mostly Cloudy
3:30 PM 43.7 °F 35.7 °F 40.1 °F 87% 29.67 in 10.0 mi East 18.4 mph 31.1 mph N/A   Overcast
4:15 PM 43.7 °F 34.7 °F 39.9 °F 87% 29.67 in 10.0 mi East 23.0 mph 28.8 mph N/A   Overcast
4:40 PM 43.7 °F 36.3 °F 39.9 °F 87% 29.67 in 7.0 mi ENE 16.1 mph 31.1 mph N/A   Overcast
5:15 PM 43.2 °F 34.2 °F 40.3 °F 90% 29.66 in 4.0 mi East 21.9 mph 32.2 mph N/A   Overcast
5:35 PM 43.2 °F 34.0 °F 40.3 °F 90% 29.65 in 5.0 mi East 23.0 mph 29.9 mph N/A   Overcast
5:55 PM 43.7 °F 35.2 °F 40.1 °F 87% 29.65 in 7.0 mi ENE 20.7 mph 32.2 mph N/A   Overcast
6:15 PM 43.7 °F 34.5 °F 39.7 °F 86% 29.64 in 10.0 mi East 24.2 mph 32.2 mph N/A   Overcast
6:35 PM 44.2 °F 37.3 °F 39.2 °F 82% 29.66 in 10.0 mi East 15.0 mph 27.6 mph N/A   Overcast
6:55 PM 44.6 °F 37.2 °F 38.7 °F 80% 29.67 in 10.0 mi East 17.3 mph 23.0 mph N/A   Overcast
7:15 PM 44.6 °F 36.9 °F 38.3 °F 79% 29.67 in 10.0 mi ENE 18.4 mph 27.6 mph N/A   Overcast
7:35 PM 44.2 °F 36.7 °F 37.8 °F 78% 29.68 in 10.0 mi East 17.3 mph 28.8 mph N/A   Overcast
7:55 PM 44.2 °F 36.2 °F 37.6 °F 77% 29.67 in 10.0 mi East 19.6 mph 26.5 mph N/A   Overcast
8:15 PM 44.1 °F 35.4 °F 37.4 °F 77% 29.65 in 10.0 mi ENE 21.9 mph 29.9 mph N/A   Overcast
8:55 PM 43.3 °F 34.5 °F 37.6 °F 80% 29.62 in 10.0 mi East 21.9 mph 33.4 mph N/A   Light Drizzle
9:15 PM 43.7 °F 35.4 °F 37.6 °F 79% 29.64 in 10.0 mi East 19.6 mph 31.1 mph N/A   Overcast
9:55 PM 43.3 °F 35.2 °F 37.4 °F 80% 29.63 in 10.0 mi East 18.4 mph 32.2 mph N/A   Overcast
10:15 PM 43.5 °F 36.7 °F 37.4 °F 79% 29.66 in 10.0 mi East 13.8 mph 29.9 mph N/A   Overcast
10:35 PM 43.3 °F 36.5 °F 37.0 °F 78% 29.65 in 10.0 mi East 13.8 mph 26.5 mph N/A   Overcast
10:55 PM 43.5 °F 35.5 °F 36.7 °F 77% 29.65 in 10.0 mi East 18.4 mph 25.3 mph N/A   Overcast
11:15 PM 43.7 °F 35.4 °F 36.5 °F 76% 29.64 in 10.0 mi ENE 19.6 mph 29.9 mph N/A   Overcast
11:30 PM 43.0 °F 34.0 °F 36.7 °F 78% 29.64 in 10.0 mi East 21.9 mph 28.8 mph N/A   Light Drizzle
11:55 PM 41.9 °F 33.7 °F 37.6 °F 85% 29.64 in 10.0 mi ENE 17.3 mph 25.3 mph 0.01 in Rain Light Rain